Tracking 35331 objects as of 14-Sep-2026
HD Live streaming from Space Station
objects crossing your sky now

SCOUT G-1 DEB

Track SCOUT G-1 DEB now!
10-day predictions


NORAD ID: 14222
Int'l Code: 1983-063C
Launch date: June 27, 1983
Source: United States (US)
Launch site: AIR FORCE WESTERN TEST RANGE (AFWTR)

Note: This is SATELLITE DEBRIS
Your satellite tracking list
Your tracking list is empty




NASA's NSSDC Master Catalog

Two Line Element Set (TLE):
1 14222U 83063C   26257.02767145  .00001283  00000-0  19227-3 0  9993
2 14222  82.3646 278.2909 0014310 306.4662  53.5228 14.73916328290386
Source of the keplerian elements: AFSPC